Regional Weather Roundup
Issued by NWS Cleveland, OH

Home | Current Version | Previous Version | Graphics & Text | Print | Product List | Glossary On
Versions: 1 2 3 4 5 6 7 8 9 10 11 12 13 14 15 16 17 18 19 20 21 22 23 24 25 26 27 28 29 30 31 32 33 34 35 36 37 38 39 40 41 42 43 44 45 46 47 48 49 50
000
ASUS41 KCLE 011312
RWRCLE
OHIO REGIONAL WEATHER ROUNDUP
NATIONAL WEATHER SERVICE WILMINGTON, OH
900 AM EDT SAT OCT 01 2016

NOTE: "FAIR" INDICATES FEW OR NO CLOUDS BELOW 12,000 FEET WITH NO
SIGNIFICANT WEATHER AND/OR OBSTRUCTIONS TO VISIBILITY.

OHZ001>008-015>018-024>027-034-035-043-044-011400-
   NORTHWEST OHIO

CITY           SKY/WX    TMP DP  RH WIND       PRES   REMARKS
DEFIANCE       FAIR      60  56  86 SE6       30.04R FOG
FINDLAY        FAIR      57  53  86 S9        30.05R
TOLEDO EXPRESS FAIR      58  58 100 VRB3      30.04R
TOLEDO EXEC    FAIR      60  59  96 S9        30.06R
LIMA           PTSUNNY   56  55  97 SE6       30.05R
$$

OHZ009>014-019>023-028>033-038-089-011400-
   NORTHEAST OHIO

CITY           SKY/WX    TMP DP  RH WIND       PRES   REMARKS
CLE-HOPKINS    CLOUDY    62  56  80 SE8       30.10R
CLE-LAKEFRONT  CLOUDY    61  56  83 SE5       30.09R
CUY CO. ARPT   CLOUDY    61  59  94 SE8       30.10R FOG
LORAIN-ELYRIA  CLOUDY    58  56  93 VRB5      30.09R
ASHTABULA      CLOUDY    59  58  96 E6        30.12S
AKRON-CANTON   CLOUDY    58  55  90 SE6       30.10R FOG
WOOSTER        CLOUDY    58  57  97 SE5       30.10R FOG
MANSFIELD      FAIR      57  57 100 S7        30.08R
YOUNGSTOWN     CLOUDY    58  56  93 E8        30.10F
$$

OHZ042-051>053-060>062-070>072-077>081-011400-
  SOUTHWEST OHIO

CITY           SKY/WX    TMP DP  RH WIND       PRES   REMARKS
CINC-COVINGTON PTSUNNY   56  55  97 S7        30.05R FOG
CINC-LUNKEN    FAIR      56  56 100 CALM      30.07R
HAMILTON       FAIR      57  54  89 S3        30.06R
DAYTON         FAIR      55  53  93 SE10      30.06R
WRIGHT-PAT AFB PTSUNNY   56  56  97 S6        30.05R
DAYTON GENERAL CLOUDY    55  52  89 SE8       30.05R
WILMINGTON     FAIR      55  53  93 S7        30.06R
$$

OHZ036-037-039>041-045>050-054>059-063>069-073>076-082>088-011400-
  CENTRAL AND SOUTHEAST OHIO

CITY           SKY/WX    TMP DP  RH WIND       PRES   REMARKS
COLUMBUS       FAIR      57  56  96 SE6       30.07R
OSU AIRPORT    FAIR      57  56  96 SE6       30.07R
BOLTON FIELD   PTSUNNY   55  55 100 SE7       30.07S
RICKENBACK AFB FAIR      53  53 100 CALM      30.07S
NEWARK         FOG       55  54  96 CALM      30.08R VSB 3/4
MARION         FAIR      56  54  93 S7        30.07S FOG
LANCASTER      FOG       54  54 100 SE6       30.08R VSB 1/4
ZANESVILLE     CLOUDY    56  55  97 CALM      30.09R FOG
NEW PHILLY     CLOUDY    60  58  92 SE5       30.10S
$$



USA.gov is the U.S. government's official web portal to all federal, state and local government web resources and services.